DateTime,F1_A11,F1_S11,BsB_S11,BsG_S11,BsR_S11,BbsB_S11,BbsG_S11,BbsR_S11,BaB_A11,BaG_A11,BaR_A11,T_S11,U_S11,P_S11,T1_A11
2016-01-06T00:00:00Z,0000380,21000600,,,,,,,,,,25.0,00.0,0655.9,34.2
2016-01-06T00:01:00Z,0000380,21000600,,,,,,,,,,25.0,00.0,0655.9,34.2
2016-01-06T00:02:00Z,0000380,21000600,,,,,,,,,,25.0,00.0,0655.9,34.2
2016-01-06T00:03:00Z,0000380,61000600,,,,,,,,,,25.1,00.0,0655.9,34.2
2016-01-06T00:04:00Z,0000380,41000600,0000.89,-000.05,-000.11,0000.58,0000.03,0000.10,-000.24,-000.13,0000.41,25.2,00.0,0656.6,34.2
2016-01-06T00:05:00Z,0000380,01000600,0000.81,-000.03,0000.22,-000.14,0000.06,0000.00,0000.04,0000.04,0000.11,25.2,00.0,0656.6,34.2
2016-01-06T00:06:00Z,0000380,01000600,0001.18,0000.89,-000.10,-000.30,0000.24,0000.06,0000.13,-000.06,-000.13,25.2,00.0,0656.6,34.2
2016-01-06T00:07:00Z,0000380,01000600,0001.53,0000.33,-000.06,0000.05,0000.51,0000.13,-000.09,0000.02,-000.07,25.2,00.0,0656.6,34.2
2016-01-06T00:08:00Z,0000380,01000600,0000.39,0000.08,0000.40,0000.45,0000.43,0000.30,0000.04,-000.02,-000.07,25.2,00.0,0656.6,34.2
2016-01-06T00:09:00Z,0000380,01000600,0000.13,0000.55,0000.13,-000.42,0000.43,0000.22,0000.01,0000.21,0000.30,25.2,00.0,0656.6,34.2
2016-01-06T00:10:00Z,0000380,01010600,0000.07,0000.51,0000.00,-000.30,0000.42,0000.13,0000.15,-000.01,-000.14,25.2,00.0,0656.6,34.2
2016-01-06T00:11:00Z,0000380,01000600,0000.80,0000.03,0000.05,-000.32,0000.29,-000.11,-000.24,-000.17,-000.10,25.2,00.0,0656.6,34.2
2016-01-06T00:12:00Z,0000380,01000600,0000.97,0000.71,-000.22,-000.06,0000.24,0000.26,0000.22,-000.00,0000.10,25.2,00.0,0656.6,34.2
2016-01-06T00:13:00Z,0000380,01000600,0001.69,0000.30,-000.37,-000.19,0000.14,-000.14,-000.09,0000.25,-000.02,25.2,00.0,0656.6,34.2
2016-01-06T00:14:00Z,0000380,01000600,-000.09,0000.60,0000.02,0000.22,0000.27,-000.05,0000.12,-000.08,0000.13,25.3,00.0,0656.6,34.2
2016-01-06T00:15:00Z,0000380,01000600,0000.05,0000.18,0000.04,0000.19,0000.02,-000.05,-000.03,-000.30,-000.03,25.3,00.0,0656.6,34.3
2016-01-06T00:16:00Z,0000380,01000600,0000.33,0000.29,0000.11,0000.06,0000.27,0000.10,-000.21,0000.31,0000.07,25.2,00.0,0656.6,34.3
2016-01-06T00:17:00Z,0000380,01000600,0001.18,0000.45,-000.31,-000.98,-000.13,-000.39,0000.23,0000.11,-000.19,25.2,00.0,0656.6,34.3
2016-01-06T00:18:00Z,0000380,01000600,0000.82,0000.10,-000.18,0000.35,0000.21,-000.37,-000.04,-000.12,0000.15,25.2,00.0,0656.6,34.3
2016-01-06T00:19:00Z,0000380,01000600,0000.21,0000.55,0000.21,0000.48,0000.46,0000.43,0000.30,0000.01,0000.11,25.2,00.0,0656.6,34.3
2016-01-06T00:20:00Z,0000380,01000600,0000.80,0000.12,0000.00,-000.06,-000.54,0000.29,-000.25,0000.02,-000.04,25.2,00.0,0656.6,34.3
2016-01-06T00:21:00Z,0000380,01000600,-000.47,-000.07,-000.12,0000.08,0000.00,0000.08,0000.14,0000.03,0000.15,25.2,00.0,0656.6,34.3
2016-01-06T00:22:00Z,0000380,01000600,0001.00,0000.24,0000.22,-000.87,0000.06,0000.05,-000.05,-000.10,-000.27,25.1,00.0,0656.6,34.3
2016-01-06T00:23:00Z,0000380,01000600,0000.72,0001.00,-000.47,-000.13,0000.21,-000.02,0000.16,0000.09,0000.24,25.1,00.0,0656.6,34.3
2016-01-06T00:24:00Z,0000380,01000600,0000.43,0000.35,-000.18,-000.34,0000.05,0000.08,0000.07,-000.09,-000.18,25.2,00.0,0656.6,34.3
2016-01-06T00:25:00Z,0000380,01000600,0000.08,0000.70,0000.12,0000.02,0000.26,-000.18,-000.21,0000.09,0000.27,25.2,00.0,0656.6,34.3
2016-01-06T00:26:00Z,0000380,01000600,0000.17,0000.78,-000.04,0000.02,0000.40,0000.03,-000.05,0000.01,-000.38,25.2,00.0,0656.6,34.3
2016-01-06T00:27:00Z,0000380,01000600,0000.77,0000.58,-000.04,-000.80,0000.35,0000.13,0000.05,0000.10,0000.32,25.2,00.0,0656.6,34.3
2016-01-06T00:28:00Z,0000380,01000600,0000.65,0000.66,-000.42,0000.03,0000.00,0000.02,-000.00,-000.14,0000.12,25.2,00.0,0656.6,34.3
2016-01-06T00:29:00Z,0000380,01000600,0000.02,0000.16,-000.12,0000.37,0000.48,0000.69,0000.06,-000.03,0000.01,25.2,00.0,0656.6,34.3
2016-01-06T00:30:00Z,0000380,01000600,0000.58,-000.32,0000.10,-000.02,0000.21,0000.18,-000.09,0000.29,-000.20,25.2,00.0,0656.6,34.2
2016-01-06T00:31:00Z,0000380,01000600,0000.75,0000.62,-000.07,-000.45,0000.35,0000.06,0000.16,-000.15,0000.09,25.2,00.0,0656.6,34.2
2016-01-06T00:32:00Z,0000380,01000600,-000.39,0000.87,-000.34,-000.16,0000.10,0000.14,-000.06,-000.01,0000.16,25.2,00.0,0656.6,34.2
2016-01-06T00:33:00Z,0000380,01000600,0000.60,0001.00,-000.18,0000.05,0000.19,0000.26,0000.06,-000.01,-000.04,25.2,00.0,0656.6,34.2
2016-01-06T00:34:00Z,0000380,01000600,0000.02,0000.73,0000.22,0000.37,0000.03,0000.08,0000.04,0000.06,-000.12,25.1,00.0,0656.6,34.2
2016-01-06T00:35:00Z,0000380,01000600,0000.28,0000.66,-000.15,-000.13,-000.10,0000.19,-000.12,-000.01,-000.34,25.2,00.0,0656.7,34.2
2016-01-06T00:36:00Z,0000380,01000600,0001.04,0000.24,0000.24,-000.03,0000.30,0000.14,0000.29,-000.01,0000.23,25.1,00.0,0656.7,34.2
2016-01-06T00:37:00Z,0000380,01000600,0000.77,0000.19,0000.26,-000.35,0000.26,0000.16,-000.24,0000.17,-000.02,25.1,00.0,0656.7,34.2
2016-01-06T00:38:00Z,0000380,01000600,-000.04,0000.04,0000.17,0000.06,0000.24,-000.02,0000.19,-000.06,-000.00,25.2,00.0,0656.7,34.2
2016-01-06T00:39:00Z,0000380,01000600,0000.69,0000.37,-000.16,0000.13,0000.38,-000.22,0000.02,-000.14,0000.05,25.1,00.0,0656.7,34.2
2016-01-06T00:40:00Z,0000380,01000600,0000.21,0000.32,-000.43,0000.30,0000.06,0000.11,-000.01,0000.02,-000.01,25.1,00.0,0656.7,34.2
2016-01-06T00:41:00Z,0000380,01000600,0001.02,0000.17,0000.10,-000.14,0000.37,0000.29,0000.04,0000.08,-000.07,25.1,00.0,0656.6,34.2
2016-01-06T00:42:00Z,0000380,01000600,0002.09,0001.03,-000.03,-000.34,0000.45,-000.03,0000.07,-000.05,0000.03,25.1,00.0,0656.6,34.2
2016-01-06T00:43:00Z,0000380,01000600,0001.45,0000.40,0000.13,0000.45,-000.14,0000.13,-000.07,-000.05,-000.12,25.1,00.0,0656.6,34.2
2016-01-06T00:44:00Z,0000380,01000600,0000.78,0000.13,-000.13,-000.24,0000.26,0000.16,-000.01,0000.07,0000.25,25.1,00.0,0656.6,34.2
2016-01-06T00:45:00Z,0000380,01000600,0001.52,0000.24,0000.20,-000.02,0000.05,0000.08,-000.02,-000.08,-000.03,25.1,00.0,0656.6,34.2
2016-01-06T00:46:00Z,0000380,01000600,0001.02,0000.47,0000.12,-000.51,0000.37,0000.06,0000.07,0000.18,-000.13,25.1,00.0,0656.5,34.2
2016-01-06T00:47:00Z,0000380,01000600,-000.03,0000.26,-000.33,0000.34,0000.05,-000.16,-000.07,-000.01,0000.00,25.1,00.0,0656.5,34.2
2016-01-06T00:48:00Z,0000380,01000600,0000.57,0000.06,0000.00,-000.13,0000.24,0000.27,-000.04,-000.00,0000.18,25.1,00.0,0656.5,34.2
2016-01-06T00:49:00Z,0000380,01000600,0000.51,0000.42,0000.13,-000.34,-000.03,0000.43,-000.05,-000.08,0000.15,25.1,00.0,0656.5,34.2
2016-01-06T00:50:00Z,0000380,01000600,0000.79,0000.81,0000.12,0000.06,0000.19,0000.10,-000.01,0000.04,-000.01,25.1,00.0,0656.5,34.2
2016-01-06T00:51:00Z,0000380,01000600,0000.81,0000.14,-000.27,0000.45,0000.10,-000.55,0000.06,-000.01,-000.20,25.1,00.0,0656.5,34.2
2016-01-06T00:52:00Z,0000380,01000600,-000.10,0000.54,0000.40,-000.69,0000.06,-000.14,-000.03,0000.18,-000.01,25.1,00.0,0656.5,34.2
2016-01-06T00:53:00Z,0000380,01000600,0000.56,0000.49,0000.26,-000.14,0000.19,0000.08,0000.01,-000.08,0000.08,25.1,00.0,0656.4,34.2
2016-01-06T00:54:00Z,0000380,01000600,0001.41,0000.19,-000.06,0000.43,0000.21,-000.22,0000.06,-000.04,0000.09,25.2,00.0,0656.4,34.2
2016-01-06T00:55:00Z,0000380,01000600,-000.17,-000.34,0000.16,-000.21,0000.18,0000.22,-000.06,-000.00,-000.07,25.2,00.0,0656.4,34.2
2016-01-06T00:56:00Z,0000380,01000600,0000.95,0000.35,0000.50,0000.37,0000.57,0000.27,-000.08,0000.02,0000.04,25.2,00.0,0656.4,34.2
2016-01-06T00:57:00Z,0000380,41000600,,,,,,,,,,,,0656.5,34.2
2016-01-06T00:58:00Z,0000380,61000600,,,,,,,,,,25.0,00.0,0655.6,34.2
2016-01-06T00:59:00Z,0000380,21000600,,,,,,,,,,25.0,00.0,0655.6,34.2
2016-01-06T01:00:00Z,0000380,21000600,,,,,,,,,,25.0,00.0,0655.6,34.3
2016-01-06T01:01:00Z,0000380,21000600,,,,,,,,,,25.0,00.0,0655.6,34.3
2016-01-06T01:02:00Z,0000380,21000600,,,,,,,,,,25.0,00.0,0655.6,34.3
2016-01-06T01:03:00Z,0000380,61000600,,,,,,,,,,25.0,00.0,0655.6,34.3
2016-01-06T01:04:00Z,0000380,41000600,0000.47,0000.48,-000.06,-000.24,-000.29,0000.08,-000.02,-000.19,0000.12,25.1,00.0,0656.4,34.3
2016-01-06T01:05:00Z,0000380,01000600,0000.55,-000.31,0000.23,-000.14,-000.05,-000.10,0000.06,0000.24,-000.05,25.2,00.0,0656.4,34.3
2016-01-06T01:06:00Z,0000380,01000600,-000.50,0000.59,0000.84,0000.35,0000.29,0000.24,0000.16,0000.16,0000.07,25.1,00.0,0656.4,34.3
2016-01-06T01:07:00Z,0000380,01000600,-001.07,0000.46,0000.45,0000.42,0000.02,0000.00,-000.06,0000.01,-000.00,25.2,00.0,0656.4,34.3
2016-01-06T01:08:00Z,0000380,01000600,0001.42,0000.48,0000.43,-000.40,-000.19,0000.00,0000.06,-000.18,0000.00,25.1,00.0,0656.5,34.3
2016-01-06T01:09:00Z,0000380,01000600,0000.46,0000.60,0000.62,-000.26,0000.19,-000.02,0000.08,0000.15,0000.16,25.1,00.0,0656.4,34.3
2016-01-06T01:10:00Z,0000380,01000600,0000.52,0001.00,0000.23,0000.67,0000.29,0000.00,-000.07,-000.02,-000.21,25.1,00.0,0656.4,34.3
2016-01-06T01:11:00Z,0000380,01000600,0001.00,0000.52,0000.16,0000.54,-000.22,0000.21,0000.03,-000.16,0000.11,25.1,00.0,0656.4,34.3
2016-01-06T01:12:00Z,0000380,01000600,0000.21,0000.00,0000.12,0000.43,0000.13,-000.10,0000.13,0000.01,-000.13,25.0,00.0,0656.4,34.3
2016-01-06T01:13:00Z,0000380,01000600,-000.37,-000.30,0000.50,-000.22,-000.27,0000.37,-000.10,0000.06,0000.14,25.0,00.0,0656.4,34.3
2016-01-06T01:14:00Z,0000380,01000600,-000.17,0000.74,-000.07,-000.38,0000.32,0000.02,-000.03,0000.08,-000.11,25.0,00.0,0656.4,34.3
2016-01-06T01:15:00Z,0000380,01000600,0001.15,0000.06,0000.50,0000.38,-000.05,-000.10,0000.35,0000.02,-000.11,25.0,00.0,0656.4,34.2
2016-01-06T01:16:00Z,0000380,01000600,0000.60,-000.11,0000.22,-000.30,-000.38,-000.02,-000.29,-000.13,0000.06,25.0,00.0,0656.4,34.2
2016-01-06T01:17:00Z,0000380,01000600,0000.24,0000.37,0000.37,0000.13,-000.26,0000.18,-000.02,0000.17,0000.10,25.0,00.0,0656.4,34.2
2016-01-06T01:18:00Z,0000380,01000600,0001.12,-000.55,0000.53,-000.03,-000.13,0000.14,-000.08,-000.02,0000.11,25.0,00.0,0656.4,34.2
2016-01-06T01:19:00Z,0000380,01000600,-000.53,0000.10,0000.05,-000.53,0000.05,0000.10,0000.17,0000.04,-000.10,25.0,00.0,0656.4,34.2
2016-01-06T01:20:00Z,0000380,01000600,0000.37,0000.06,-000.07,-000.30,-000.10,0000.21,0000.05,-000.28,-000.05,25.0,00.0,0656.4,34.2
2016-01-06T01:21:00Z,0000380,01000600,-000.04,0000.15,0000.24,-000.35,0000.00,0000.00,0000.05,0000.09,-000.16,24.9,00.0,0656.4,34.2
2016-01-06T01:22:00Z,0000380,01000600,0000.02,0000.12,0000.12,-000.03,-000.19,0000.05,-000.00,0000.01,-000.04,25.0,00.0,0656.4,34.2
2016-01-06T01:23:00Z,0000380,01000600,0000.33,0000.25,0000.30,-000.13,-000.13,-000.02,-000.14,-000.09,0000.17,24.9,00.0,0656.5,34.2
2016-01-06T01:24:00Z,0000380,01000600,-001.01,-000.28,0000.40,-000.59,0000.16,0000.05,-000.07,0000.01,-000.04,25.0,00.0,0656.5,34.2
2016-01-06T01:25:00Z,0000380,01000600,0000.49,0000.48,0000.69,-000.16,-000.30,0000.11,0000.04,0000.22,0000.07,25.0,00.0,0656.4,34.2
2016-01-06T01:26:00Z,0000380,01000600,-000.09,-000.14,0000.39,-000.02,0000.03,0000.16,-000.08,-000.11,-000.10,25.0,00.0,0656.5,34.2
2016-01-06T01:27:00Z,0000380,01000600,0000.63,0000.08,0000.22,0000.16,0000.21,-000.11,0000.11,0000.03,-000.05,25.0,00.0,0656.5,34.2
2016-01-06T01:28:00Z,0000380,01000600,0000.39,0000.49,0000.08,0000.08,0000.14,0000.06,-000.12,-000.12,0000.12,25.0,00.0,0656.5,34.2
2016-01-06T01:29:00Z,0000380,01000600,-000.97,0000.14,0000.34,-000.06,-000.02,0000.35,0000.15,0000.22,-000.06,25.0,00.0,0656.5,34.2
2016-01-06T01:30:00Z,0000380,01000600,0000.46,-000.02,0000.36,0000.24,-000.02,0000.19,0000.11,-000.19,0000.17,25.0,00.0,0656.5,34.2
2016-01-06T01:31:00Z,0000380,01000600,0000.80,-000.69,0000.63,0000.19,0000.27,0000.22,-000.01,0000.06,0000.03,25.0,00.0,0656.5,34.2
2016-01-06T01:32:00Z,0000380,01000600,0000.02,0000.40,0000.15,-000.70,0000.05,-000.06,0000.03,-000.04,-000.05,25.0,00.0,0656.5,34.2
2016-01-06T01:33:00Z,0000380,01000600,0000.37,-000.02,0001.10,-000.67,-000.26,0000.16,-000.13,-000.01,-000.50,25.0,00.0,0656.5,34.2
2016-01-06T01:34:00Z,0000380,01000600,0000.11,0000.18,0000.47,0000.16,0000.29,0000.38,0000.04,0000.07,0000.40,25.0,00.0,0656.6,34.2
2016-01-06T01:35:00Z,0000380,01000600,-000.13,0000.25,0000.77,0000.18,-000.05,0000.79,-000.03,-000.12,0000.24,24.9,00.0,0656.6,34.2
2016-01-06T01:36:00Z,0000380,01000600,-000.55,0000.17,0000.63,-000.10,-000.10,0000.08,-000.01,0000.16,-000.23,24.9,00.0,0656.6,34.2
2016-01-06T01:37:00Z,0000380,01000600,0001.05,-000.55,-000.02,-000.66,-000.11,0000.32,0000.05,-000.04,-000.29,24.9,00.0,0656.5,34.2
2016-01-06T01:38:00Z,0000380,01000600,-000.54,0000.48,0000.34,-000.11,0000.14,0000.51,0000.15,-000.03,0000.30,24.9,00.0,0656.5,34.2
2016-01-06T01:39:00Z,0000380,01000600,0000.71,-000.37,-000.27,0000.19,-000.37,-000.03,-000.09,0000.30,-000.08,24.9,00.0,0656.6,34.2
2016-01-06T01:40:00Z,0000380,01000600,0000.30,0000.57,0000.18,-000.82,0000.05,0000.38,0000.10,-000.17,0000.01,25.0,00.0,0656.5,34.2
2016-01-06T01:41:00Z,0000380,01000600,0000.06,-000.33,0000.00,0000.58,0000.06,0000.29,0000.13,0000.16,-000.15,25.0,00.0,0656.6,34.2
2016-01-06T01:42:00Z,0000380,01000600,0000.75,0000.00,0000.19,-000.02,-000.21,0000.06,-000.08,-000.23,0000.06,25.0,00.0,0656.6,34.2
2016-01-06T01:43:00Z,0000380,01000600,0000.70,-000.12,-000.02,0000.16,-000.21,0000.00,-000.02,0000.35,0000.17,25.0,00.0,0656.5,34.2
2016-01-06T01:44:00Z,0000380,01000600,-000.64,-000.29,-000.18,-000.35,-000.13,-000.02,-000.10,-000.17,0000.10,25.0,00.0,0656.5,34.2
2016-01-06T01:45:00Z,0000380,01000600,0000.90,0000.09,0000.29,0000.08,-000.05,0000.37,0000.07,0000.03,-000.17,25.0,00.0,0656.5,34.2
2016-01-06T01:46:00Z,0000380,01000600,-000.38,0000.23,0000.52,0000.14,0000.24,0000.18,0000.20,0000.02,-000.14,25.0,00.0,0656.5,34.2
2016-01-06T01:47:00Z,0000380,01000600,-000.52,0000.71,0000.51,-000.16,0000.00,0000.03,-000.09,0000.03,0000.32,25.0,00.0,0656.5,34.2
2016-01-06T01:48:00Z,0000380,01000600,0000.53,0000.49,0000.13,-000.24,0000.05,-000.02,0000.11,-000.05,-000.07,25.0,00.0,0656.5,34.2
2016-01-06T01:49:00Z,0000380,01000600,0000.45,0000.40,0000.20,0000.32,-000.02,-000.24,-000.00,0000.01,-000.17,25.0,00.0,0656.5,34.2
2016-01-06T01:50:00Z,0000380,01000600,0001.02,0000.60,0000.28,0000.14,-000.16,-000.13,0000.02,0000.10,0000.74,24.9,00.0,0656.5,34.2
2016-01-06T01:51:00Z,0000380,01000600,-000.14,0000.00,0000.04,0000.08,-000.14,0000.02,-000.24,-000.07,-000.51,24.9,00.0,0656.4,34.2
2016-01-06T01:52:00Z,0000380,01000600,0000.68,0000.49,0000.40,-000.19,0000.16,-000.11,0000.25,-000.11,-000.08,24.9,00.0,0656.5,34.2
2016-01-06T01:53:00Z,0000380,01000600,0000.46,0000.02,0000.23,-000.03,0000.21,-000.11,0000.14,0000.22,-000.03,24.9,00.0,0656.5,34.2
2016-01-06T01:54:00Z,0000380,01000600,0000.42,-000.30,0000.46,0000.37,-000.14,-000.06,0000.09,0000.07,0000.70,24.9,00.0,0656.5,34.2
2016-01-06T01:55:00Z,0000380,01000600,0000.39,0000.00,0000.53,0000.48,0000.05,-000.08,-000.13,-000.20,-000.51,25.0,00.0,0656.4,34.2
2016-01-06T01:56:00Z,0000380,01000600,0000.43,0000.07,0000.53,0000.74,-000.37,0000.11,-000.13,0000.06,0000.08,25.0,00.0,0656.4,34.2
2016-01-06T01:57:00Z,0000380,41000600,,,,,,,,,,,,0656.3,34.2
2016-01-06T01:58:00Z,0000380,61000600,,,,,,,,,,24.8,00.0,0655.6,34.2
2016-01-06T01:59:00Z,0000380,21000600,,,,,,,,,,24.8,00.0,0655.6,34.2
2016-01-06T02:00:00Z,0000380,21000600,,,,,,,,,,24.8,00.0,0655.6,34.2
2016-01-06T02:01:00Z,0000380,21000600,,,,,,,,,,24.8,00.0,0655.6,34.2
2016-01-06T02:02:00Z,0000380,21000600,,,,,,,,,,24.8,00.0,0655.6,34.2
2016-01-06T02:03:00Z,0000380,61000600,,,,,,,,,,24.8,00.0,0655.6,34.2
2016-01-06T02:04:00Z,0000380,41000600,0001.08,0000.35,-000.09,-000.11,0000.03,-000.10,-000.12,0000.00,0000.24,24.9,00.0,0656.3,34.2
2016-01-06T02:05:00Z,0000380,01000600,-000.46,0000.12,0000.20,-000.43,0000.16,0000.06,0000.34,0000.01,-000.23,24.8,00.0,0656.4,34.2
2016-01-06T02:06:00Z,0000380,01000600,-000.10,0000.08,-000.25,-000.11,-000.35,-000.26,-000.16,-000.07,0000.03,24.8,00.0,0656.3,34.2
2016-01-06T02:07:00Z,0000380,01000600,0000.27,0000.44,-000.39,0000.24,0000.18,-000.08,0000.03,0000.06,0000.12,24.8,00.0,0656.3,34.2
2016-01-06T02:08:00Z,0000380,01000600,0000.32,0000.07,-000.10,-000.11,-000.13,-000.13,0000.09,0000.11,-000.24,24.8,00.0,0656.3,34.2
2016-01-06T02:09:00Z,0000380,01000600,0000.48,0000.00,-000.23,0000.80,0000.33,-000.19,-000.05,-000.17,0000.02,24.8,00.0,0656.4,34.2
2016-01-06T02:10:00Z,0000380,01000600,-000.28,-000.51,0000.02,0000.53,0000.03,-000.11,0000.05,0000.13,0000.16,24.8,00.0,0656.3,34.2
2016-01-06T02:11:00Z,0000380,01000600,0000.09,-000.87,-000.42,-000.66,-000.26,-000.14,-000.14,-000.02,0000.16,24.8,00.0,0656.4,34.2
2016-01-06T02:12:00Z,0000380,01000600,0000.55,-000.11,0000.34,-000.10,-000.24,0000.11,0000.05,-000.00,-000.10,24.8,00.0,0656.4,34.2
2016-01-06T02:13:00Z,0000380,01000600,0000.52,0000.16,-000.04,-000.48,0000.05,-000.21,0000.02,-000.09,-000.04,24.8,00.0,0656.4,34.2
2016-01-06T02:14:00Z,0000380,01000600,0000.38,-000.06,0000.24,0000.14,0000.10,-000.13,-000.13,0000.07,-000.15,24.8,00.0,0656.4,34.2
2016-01-06T02:15:00Z,0000380,01000600,0000.30,-000.31,-000.06,-000.46,-000.08,0000.06,0000.23,-000.06,0000.11,24.7,00.0,0656.4,34.2
2016-01-06T02:16:00Z,0000380,01000600,0000.74,-000.22,0000.41,0000.18,0000.05,-000.02,-000.15,-000.01,0000.01,24.7,00.0,0656.3,34.2
2016-01-06T02:17:00Z,0000380,01000600,0000.14,0000.27,0000.21,0000.08,0000.16,-000.08,-000.08,0000.13,-000.10,24.7,00.0,0656.3,34.2
2016-01-06T02:18:00Z,0000380,01000600,-000.25,0000.17,-000.42,0000.02,0000.11,-000.37,0000.14,-000.01,0000.06,24.7,00.0,0656.3,34.2
2016-01-06T02:19:00Z,0000380,01000600,0000.41,-000.14,0000.17,-000.22,0000.16,-000.02,-000.18,-000.05,-000.20,24.6,00.0,0656.3,34.2
2016-01-06T02:20:00Z,0000380,01000600,0000.14,0000.00,-000.09,-000.14,0000.30,-000.24,0000.16,-000.00,0000.19,24.6,00.0,0656.3,34.2
2016-01-06T02:21:00Z,0000380,01000600,0000.07,0000.48,-000.04,0000.14,0000.33,-000.14,0000.06,0000.00,0000.26,24.5,00.0,0656.3,34.2
2016-01-06T02:22:00Z,0000380,01000600,0000.75,-000.92,-000.26,-000.02,-000.21,-000.16,0000.05,0000.04,-000.56,24.5,00.0,0656.3,34.2
2016-01-06T02:23:00Z,0000380,01000600,0000.17,-000.09,0000.18,0000.24,0000.06,-000.08,-000.18,-000.11,0000.36,24.5,00.0,0656.3,34.2
2016-01-06T02:24:00Z,0000380,01000600,-000.04,-000.18,-000.11,0000.10,-000.33,0000.02,-000.04,-000.02,-000.52,24.5,00.0,0656.3,34.2
2016-01-06T02:25:00Z,0000380,01000600,0001.10,-000.87,0000.04,-000.40,0000.02,-000.08,0000.06,-000.01,0000.18,24.5,00.0,0656.3,34.2
2016-01-06T02:26:00Z,0000380,01000600,0000.27,-000.15,0000.37,0000.02,-000.16,0000.05,-000.11,0000.09,0000.32,24.6,00.0,0656.3,34.2
2016-01-06T02:27:00Z,0000380,01000600,0000.66,-000.46,-000.16,-000.24,0000.06,0000.02,0000.03,0000.04,-000.22,24.6,00.0,0656.3,34.2
2016-01-06T02:28:00Z,0000380,01000600,0001.01,0000.38,-000.44,0000.58,-000.22,-000.02,0000.12,-000.11,0000.10,24.7,00.0,0656.3,34.2
2016-01-06T02:29:00Z,0000380,01000600,0000.44,0000.00,0000.30,-000.11,0000.11,-000.19,0000.19,0000.22,0000.03,24.7,00.0,0656.3,34.2
2016-01-06T02:30:00Z,0000380,01000600,0000.29,0000.13,0000.18,-000.02,0000.08,-000.06,-000.22,-000.13,-000.08,24.7,00.0,0656.4,34.2
2016-01-06T02:31:00Z,0000380,01000600,-000.03,0000.00,-000.06,0000.32,0000.11,0000.02,0000.03,-000.17,0000.39,24.7,00.0,0656.4,34.2
2016-01-06T02:32:00Z,0000380,01000600,0001.03,-000.15,0000.39,-000.11,-000.05,0000.06,0000.03,0000.06,-000.04,24.7,00.0,0656.4,34.2
2016-01-06T02:33:00Z,0000380,01000600,0000.48,-000.05,0000.15,0000.35,0000.08,0000.14,0000.03,0000.22,0000.02,24.7,00.0,0656.4,34.2
2016-01-06T02:34:00Z,0000380,01000600,0000.80,-000.13,0000.00,-000.27,-000.10,0000.18,0000.16,0000.04,-000.06,24.7,00.0,0656.4,34.2
2016-01-06T02:35:00Z,0000380,01000600,0000.43,0000.11,-000.06,-000.22,0000.61,-000.24,0000.05,-000.05,-000.19,24.6,00.0,0656.4,34.2
2016-01-06T02:36:00Z,0000380,01000600,0000.06,-000.63,-000.28,0000.16,-000.03,0000.05,-000.08,0000.02,0000.22,24.6,00.0,0656.4,34.2
2016-01-06T02:37:00Z,0000380,01000600,0000.35,-000.22,-000.07,-000.10,0000.03,0000.03,0000.19,0000.07,-000.01,24.5,00.0,0656.4,34.2
2016-01-06T02:38:00Z,0000380,01000600,0000.37,0000.18,0000.00,0000.22,-000.18,-000.10,-000.32,-000.05,-000.28,24.5,00.0,0656.4,34.2
2016-01-06T02:39:00Z,0000380,01000600,-000.42,-000.29,-000.07,-000.24,0000.25,-000.16,0000.10,0000.24,0000.33,24.5,00.0,0656.4,34.2
2016-01-06T02:40:00Z,0000380,01000600,0000.24,-000.18,-000.05,-000.27,0000.06,-000.11,-000.10,-000.19,-000.21,24.6,00.0,0656.3,34.2
2016-01-06T02:41:00Z,0000380,01000600,-000.20,0000.11,0000.25,-000.32,0000.14,0000.14,0000.11,0000.21,0000.30,24.7,00.0,0656.3,34.2
2016-01-06T02:42:00Z,0000380,01000600,0001.14,-000.27,-000.16,0000.77,0000.19,-000.21,-000.02,0000.06,-000.33,24.7,00.0,0656.4,34.2
2016-01-06T02:43:00Z,0000380,01000600,0000.46,-000.16,-000.35,-000.45,0000.06,-000.06,0000.05,-000.03,0000.21,24.7,00.0,0656.4,34.2
2016-01-06T02:44:00Z,0000380,01000600,0001.11,0000.27,0000.05,0000.24,-000.02,0000.11,0000.05,-000.15,0000.05,24.8,00.0,0656.4,34.2
2016-01-06T02:45:00Z,0000380,01000600,0000.85,0000.48,0000.10,0000.02,0000.18,-000.42,-000.11,-000.06,-000.15,24.8,00.0,0656.4,34.3
2016-01-06T02:46:00Z,0000380,01000600,-000.35,-000.15,0000.28,-000.51,0000.64,-000.22,0000.04,0000.22,0000.09,24.8,00.0,0656.3,34.3
2016-01-06T02:47:00Z,0000380,01000600,-000.38,-000.03,-000.36,0000.16,0000.27,0000.14,-000.00,-000.15,0000.25,24.8,00.0,0656.3,34.3
2016-01-06T02:48:00Z,0000380,01000600,0000.50,-000.27,0000.02,-000.26,-000.02,-000.13,-000.04,0000.17,-000.06,24.8,00.0,0656.3,34.3
2016-01-06T02:49:00Z,0000380,01000600,0000.81,-000.07,-000.30,-000.22,-000.27,-000.27,0000.11,0000.04,0000.09,24.7,00.0,0656.3,34.3
2016-01-06T02:50:00Z,0000380,01000600,0000.68,-000.58,-000.12,0000.10,0000.18,-000.05,-000.13,-000.18,-000.49,24.7,00.0,0656.3,34.3
2016-01-06T02:51:00Z,0000380,01000600,0000.26,0000.49,-000.25,0000.29,0000.27,-000.08,0000.12,0000.01,0000.21,24.7,00.0,0656.3,34.3
2016-01-06T02:52:00Z,0000380,01000600,0000.89,0000.30,-000.44,0000.08,-000.03,0000.05,-000.09,0000.03,0000.21,24.7,00.0,0656.3,34.3
2016-01-06T02:53:00Z,0000380,01000600,0000.30,-000.08,0000.04,-000.53,0000.16,-000.35,0000.33,0000.10,-000.05,24.7,00.0,0656.3,34.3
2016-01-06T02:54:00Z,0000380,01000600,0000.73,0000.12,0000.06,-000.82,0000.35,-000.13,-000.42,-000.20,-000.23,24.7,00.0,0656.4,34.3
2016-01-06T02:55:00Z,0000380,01000600,0000.55,-000.74,-000.07,-000.26,0000.48,-000.21,0000.02,0000.08,0000.09,24.7,00.0,0656.4,34.3
2016-01-06T02:56:00Z,0000380,01000600,-000.02,-000.45,-000.30,-000.08,-000.21,0000.14,0000.17,0000.24,0000.08,24.7,00.0,0656.4,34.3
2016-01-06T02:57:00Z,0000380,41000600,,,,,,,,,,,,0656.4,34.3
2016-01-06T02:58:00Z,0000380,61000600,,,,,,,,,,24.7,00.0,0655.6,34.3
2016-01-06T02:59:00Z,0000380,21000600,,,,,,,,,,24.7,00.0,0655.6,34.3
2016-01-06T03:00:00Z,0000380,21000600,,,,,,,,,,24.7,00.0,0655.6,34.2
2016-01-06T03:01:00Z,0000380,21000600,,,,,,,,,,24.6,00.0,0655.6,34.2
2016-01-06T03:02:00Z,0000380,21000600,,,,,,,,,,24.5,00.0,0655.6,34.2
2016-01-06T03:03:00Z,0000380,61000600,,,,,,,,,,24.6,00.0,0655.6,34.2
2016-01-06T03:04:00Z,0000380,41000600,-000.72,-000.34,0000.46,-000.03,-000.32,-000.03,0000.17,0000.00,-000.15,24.7,00.0,0656.3,34.2
2016-01-06T03:05:00Z,0000380,01000600,-000.31,0000.09,0000.09,0000.26,0000.27,0000.08,-000.01,-000.21,0000.30,24.7,00.0,0656.3,34.2
2016-01-06T03:06:00Z,0000380,01000600,-000.04,-000.33,0000.49,0000.53,0000.05,0000.19,0000.10,0000.24,-000.18,24.7,00.0,0656.3,34.2
2016-01-06T03:07:00Z,0000380,01000600,-000.06,-000.05,0000.02,0000.54,-000.13,0000.14,-000.02,0000.03,0000.25,24.7,00.0,0656.3,34.2
2016-01-06T03:08:00Z,0000380,01000600,-000.24,-000.83,0000.25,-000.22,0000.33,-000.05,0000.03,-000.19,-000.38,24.7,00.0,0656.3,34.2
2016-01-06T03:09:00Z,0000380,01000600,0000.39,0000.04,-000.12,0000.34,0000.05,0000.08,-000.13,0000.16,0000.08,24.7,00.0,0656.3,34.2
2016-01-06T03:10:00Z,0000380,01000600,-000.15,-000.38,0000.19,-000.26,0000.22,0000.06,0000.07,0000.00,0000.16,24.8,00.0,0656.3,34.2
2016-01-06T03:11:00Z,0000380,01000600,0001.02,0000.00,0000.25,-000.06,0000.13,0000.13,-000.21,0000.02,-000.24,24.8,00.0,0656.3,34.2
2016-01-06T03:12:00Z,0000380,01000600,0000.47,-000.52,-000.11,0000.02,-000.22,0000.19,0000.06,-000.26,0000.04,24.9,00.0,0656.3,34.2